timestamp,wind_dir_avg,wind_spd_avg,wind_spd_max_dir,wind_spd_gust,battery_voltage,lat,long
2021-07-13 00:04:01+00:00,343.0,14.2,340.0,17.19,13.29,47.59359,-54.27349
2021-07-13 00:14:01+00:00,352.0,11.95,356.0,13.83,12.73,47.59359,-54.27349
2021-07-13 00:24:01+00:00,352.0,13.12,354.0,15.83,12.73,47.59359,-54.27349
2021-07-13 00:34:01+00:00,352.0,13.84,356.0,17.49,12.73,47.59359,-54.27349
2021-07-13 00:44:01+00:00,352.0,12.06,347.0,14.06,12.73,47.59359,-54.27349
2021-07-13 00:54:01+00:00,349.0,10.6,349.0,11.47,12.73,47.59359,-54.27349
2021-07-13 01:04:01+00:00,350.0,14.47,349.0,18.15,12.73,47.59359,-54.27349
2021-07-13 01:14:01+00:00,9.0,12.38,7.0,14.15,12.65,47.59359,-54.27349
2021-07-13 01:24:01+00:00,359.0,8.94,354.0,10.41,12.65,47.59359,-54.27349
2021-07-13 01:34:01+00:00,349.0,10.86,357.0,13.26,12.65,47.59359,-54.27349
2021-07-13 01:44:01+00:00,347.0,13.87,340.0,15.23,12.65,47.59359,-54.27349
2021-07-13 01:54:01+00:00,349.0,11.26,345.0,13.77,12.65,47.59359,-54.27349
2021-07-13 02:04:01+00:00,347.0,8.85,347.0,10.27,12.65,47.59359,-54.27349
2021-07-13 02:14:01+00:00,340.0,9.45,337.0,10.75,12.65,47.59359,-54.27349
2021-07-13 02:24:01+00:00,346.0,10.68,342.0,12.18,12.65,47.59359,-54.27349
2021-07-13 02:34:01+00:00,340.0,10.0,334.0,12.68,12.65,47.59359,-54.27349
2021-07-13 02:44:01+00:00,341.0,10.15,344.0,12.1,12.65,47.59359,-54.27349
2021-07-13 02:54:01+00:00,345.0,10.65,347.0,12.74,12.65,47.59359,-54.27349
2021-07-13 03:04:01+00:00,338.0,9.6,346.0,11.91,12.65,47.59359,-54.27349
2021-07-13 03:14:00+00:00,332.0,8.7,335.0,9.78,12.57,47.59359,-54.27349
2021-07-13 03:24:00+00:00,336.0,8.15,338.0,9.81,12.57,47.59359,-54.27349
2021-07-13 03:34:00+00:00,330.0,7.94,332.0,9.1,12.57,47.59359,-54.27349
2021-07-13 03:44:00+00:00,333.0,8.98,338.0,11.26,12.57,47.59359,-54.27349
2021-07-13 03:54:00+00:00,332.0,8.24,339.0,11.22,12.57,47.59359,-54.27349
2021-07-13 04:04:00+00:00,326.0,8.26,333.0,9.32,12.57,47.59359,-54.27349
2021-07-13 04:14:00+00:00,322.0,7.63,315.0,8.75,12.57,47.59359,-54.27349
2021-07-13 04:24:00+00:00,322.0,7.39,324.0,8.09,12.57,47.59359,-54.27349
2021-07-13 04:34:00+00:00,316.0,6.2,312.0,6.96,12.57,47.59359,-54.27349
2021-07-13 04:44:00+00:00,312.0,5.5,322.0,6.92,12.57,47.59359,-54.27349
2021-07-13 04:54:00+00:00,310.0,4.31,313.0,5.34,12.57,47.59359,-54.27349
2021-07-13 05:04:00+00:00,310.0,5.47,314.0,7.3,12.57,47.59359,-54.27349
2021-07-13 05:14:00+00:00,317.0,7.14,320.0,8.63,12.57,47.59359,-54.27349
2021-07-13 05:24:00+00:00,318.0,7.25,310.0,7.97,12.57,47.59359,-54.27349
2021-07-13 05:34:00+00:00,306.0,7.14,306.0,8.73,12.57,47.59359,-54.27349
2021-07-13 05:44:00+00:00,316.0,7.76,317.0,9.24,12.57,47.59359,-54.27349
2021-07-13 05:54:00+00:00,321.0,8.1,320.0,9.63,12.57,47.59359,-54.27349
2021-07-13 06:04:00+00:00,320.0,6.53,321.0,7.5,12.57,47.59359,-54.27349
2021-07-13 06:14:00+00:00,323.0,6.96,325.0,7.96,12.57,47.59359,-54.27349
2021-07-13 06:24:00+00:00,329.0,6.2,326.0,7.02,12.57,47.59359,-54.27349
2021-07-13 06:34:00+00:00,331.0,7.51,330.0,9.62,12.57,47.59359,-54.27349
2021-07-13 06:44:00+00:00,339.0,6.97,340.0,7.96,12.57,47.59359,-54.27349
2021-07-13 06:54:00+00:00,332.0,7.54,331.0,8.54,12.57,47.59359,-54.27349
2021-07-13 07:04:00+00:00,326.0,7.89,327.0,8.64,12.57,47.59359,-54.27349
2021-07-13 07:14:01+00:00,324.0,8.18,326.0,9.04,12.49,47.59359,-54.27349
2021-07-13 07:24:01+00:00,323.0,7.08,324.0,7.94,12.49,47.59359,-54.27349
2021-07-13 07:34:01+00:00,321.0,8.39,325.0,9.51,12.49,47.59359,-54.27349
2021-07-13 07:44:01+00:00,326.0,7.78,323.0,8.79,12.49,47.59359,-54.27349
2021-07-13 07:54:01+00:00,318.0,9.03,310.0,10.58,12.49,47.59359,-54.27349
2021-07-13 08:04:01+00:00,314.0,7.14,309.0,9.33,12.49,47.59359,-54.27349
2021-07-13 08:14:01+00:00,313.0,8.58,317.0,9.78,12.49,47.59359,-54.27349
2021-07-13 08:24:01+00:00,315.0,8.3,304.0,10.08,12.49,47.59359,-54.27349
2021-07-13 08:34:01+00:00,315.0,7.46,318.0,8.69,12.49,47.59359,-54.27349
2021-07-13 08:44:01+00:00,318.0,8.36,327.0,10.12,12.49,47.59359,-54.27349
2021-07-13 08:54:01+00:00,316.0,8.16,318.0,9.54,12.49,47.59359,-54.27349
2021-07-13 09:04:01+00:00,307.0,7.54,313.0,9.72,12.49,47.59359,-54.27349
2021-07-13 09:14:01+00:00,303.0,9.1,308.0,10.18,12.89,47.59359,-54.27349
2021-07-13 09:24:01+00:00,303.0,7.91,304.0,8.78,12.89,47.59359,-54.27349
2021-07-13 09:34:01+00:00,305.0,8.49,301.0,9.76,12.89,47.59359,-54.27349
2021-07-13 09:44:01+00:00,309.0,7.04,313.0,7.68,12.89,47.59359,-54.27349
2021-07-13 09:54:01+00:00,311.0,5.63,314.0,6.41,12.89,47.59359,-54.27349
2021-07-13 10:04:01+00:00,323.0,4.43,327.0,5.11,12.89,47.59359,-54.27349
2021-07-13 10:14:01+00:00,332.0,5.93,333.0,6.66,13.53,47.59359,-54.27349
2021-07-13 10:24:01+00:00,333.0,5.83,336.0,7.03,13.53,47.59359,-54.27349
2021-07-13 10:34:01+00:00,331.0,5.74,334.0,6.65,13.53,47.59359,-54.27349
2021-07-13 10:44:01+00:00,331.0,7.78,319.0,9.91,13.53,47.59359,-54.27349
2021-07-13 10:54:01+00:00,334.0,7.32,333.0,8.33,13.53,47.59359,-54.27349
2021-07-13 11:04:01+00:00,326.0,8.14,323.0,10.65,13.53,47.59359,-54.27349
2021-07-13 11:14:01+00:00,331.0,8.11,331.0,9.09,13.76,47.59359,-54.27349
2021-07-13 11:24:01+00:00,334.0,8.16,341.0,9.88,13.76,47.59359,-54.27349
2021-07-13 11:34:01+00:00,331.0,9.2,329.0,11.35,13.76,47.59359,-54.27349
2021-07-13 11:44:01+00:00,334.0,10.52,335.0,12.51,13.76,47.59359,-54.27349
2021-07-13 11:54:01+00:00,325.0,10.04,324.0,11.98,13.76,47.59359,-54.27349
2021-07-13 12:04:01+00:00,339.0,9.77,330.0,11.03,13.76,47.59359,-54.27349
2021-07-13 12:14:01+00:00,354.0,11.87,358.0,12.99,14.0,47.59359,-54.27349
2021-07-13 12:24:01+00:00,358.0,8.55,356.0,10.6,14.0,47.59359,-54.27349
2021-07-13 12:34:01+00:00,357.0,9.54,351.0,11.46,14.0,47.59359,-54.27349
2021-07-13 12:44:01+00:00,356.0,9.31,356.0,11.12,14.0,47.59359,-54.27349
2021-07-13 12:54:01+00:00,2.0,9.84,1.0,11.73,14.0,47.59359,-54.27349
2021-07-13 13:04:01+00:00,357.0,10.63,359.0,12.32,14.0,47.59359,-54.27349
2021-07-13 13:14:01+00:00,358.0,10.33,0.0,11.3,14.08,47.59359,-54.27349
2021-07-13 13:24:01+00:00,355.0,10.92,359.0,12.43,14.08,47.59359,-54.27349
2021-07-13 13:34:01+00:00,350.0,11.08,344.0,13.14,14.08,47.59359,-54.27349
2021-07-13 13:44:01+00:00,354.0,11.58,354.0,13.27,14.08,47.59359,-54.27349
2021-07-13 13:54:01+00:00,354.0,11.21,355.0,13.92,14.08,47.59359,-54.27349
2021-07-13 14:04:01+00:00,355.0,10.0,356.0,12.33,14.08,47.59359,-54.27349
2021-07-13 14:14:01+00:00,355.0,9.73,358.0,12.32,13.84,47.59359,-54.27349
2021-07-13 14:24:01+00:00,0.0,10.41,5.0,11.8,13.84,47.59359,-54.27349
2021-07-13 14:34:01+00:00,355.0,8.73,356.0,9.98,13.84,47.59359,-54.27349
2021-07-13 14:44:01+00:00,357.0,10.76,359.0,12.92,13.84,47.59359,-54.27349
2021-07-13 14:54:01+00:00,0.0,10.35,1.0,12.05,13.84,47.59359,-54.27349
2021-07-13 15:04:01+00:00,354.0,10.98,355.0,12.37,13.84,47.59359,-54.27349
2021-07-13 15:14:01+00:00,352.0,8.6,355.0,10.38,13.76,47.59359,-54.27349
2021-07-13 15:24:01+00:00,2.0,8.96,5.0,9.78,13.76,47.59359,-54.27349
2021-07-13 15:34:01+00:00,358.0,7.3,4.0,8.38,13.76,47.59359,-54.27349
2021-07-13 15:44:01+00:00,10.0,7.42,14.0,9.14,13.76,47.59359,-54.27349
2021-07-13 15:54:01+00:00,0.0,7.67,1.0,9.2,13.76,47.59359,-54.27349
2021-07-13 16:04:01+00:00,11.0,7.06,9.0,8.86,13.76,47.59359,-54.27349
2021-07-13 16:14:01+00:00,7.0,7.13,2.0,8.66,13.84,47.59359,-54.27349
2021-07-13 16:24:01+00:00,6.0,8.03,3.0,9.29,13.84,47.59359,-54.27349
2021-07-13 16:34:01+00:00,11.0,7.55,13.0,8.7,13.84,47.59359,-54.27349
2021-07-13 16:44:01+00:00,9.0,7.76,8.0,9.54,13.84,47.59359,-54.27349
2021-07-13 16:54:01+00:00,11.0,5.98,10.0,6.69,13.84,47.59359,-54.27349
2021-07-13 17:04:01+00:00,353.0,8.73,355.0,9.58,13.84,47.59359,-54.27349
2021-07-13 17:14:01+00:00,8.0,7.1,1.0,8.8,14.16,47.59359,-54.27349
2021-07-13 17:24:01+00:00,10.0,7.88,14.0,9.38,14.16,47.59359,-54.27349
2021-07-13 17:34:01+00:00,13.0,7.67,15.0,8.42,14.16,47.59359,-54.27349
2021-07-13 17:44:01+00:00,4.0,6.8,358.0,8.19,14.16,47.59359,-54.27349
2021-07-13 17:54:01+00:00,12.0,7.78,14.0,8.87,14.16,47.59359,-54.27349
2021-07-13 18:04:01+00:00,7.0,5.69,4.0,6.98,14.16,47.59359,-54.27349
2021-07-13 18:14:01+00:00,18.0,6.96,21.0,8.3,13.92,47.59359,-54.27349
2021-07-13 18:24:01+00:00,17.0,5.32,19.0,6.37,13.92,47.59359,-54.27349
2021-07-13 18:34:01+00:00,13.0,6.91,11.0,8.94,13.92,47.59359,-54.27349
2021-07-13 18:44:01+00:00,26.0,5.06,23.0,5.66,13.92,47.59359,-54.27349
2021-07-13 18:54:01+00:00,82.0,2.85,85.0,4.02,13.92,47.59359,-54.27349
2021-07-13 19:04:01+00:00,90.0,2.11,78.0,2.81,13.92,47.59359,-54.27349
2021-07-13 19:14:01+00:00,66.0,4.34,76.0,4.94,13.84,47.59359,-54.27349
2021-07-13 19:24:01+00:00,65.0,5.19,60.0,5.9,13.84,47.59359,-54.27349
2021-07-13 19:34:01+00:00,62.0,4.31,64.0,4.84,13.84,47.59359,-54.27349
2021-07-13 19:44:01+00:00,71.0,5.7,72.0,5.94,13.84,47.59359,-54.27349
2021-07-13 19:54:01+00:00,74.0,5.22,73.0,6.05,13.84,47.59359,-54.27349
2021-07-13 20:04:01+00:00,74.0,5.08,75.0,5.55,13.84,47.59359,-54.27349
2021-07-13 20:14:01+00:00,73.0,5.83,75.0,6.55,13.84,47.59359,-54.27349
2021-07-13 20:24:01+00:00,75.0,4.64,79.0,5.63,13.84,47.59359,-54.27349
2021-07-13 20:34:01+00:00,75.0,4.83,79.0,6.59,13.84,47.59359,-54.27349
2021-07-13 20:44:01+00:00,73.0,4.9,70.0,5.6,13.84,47.59359,-54.27349
2021-07-13 20:54:01+00:00,84.0,3.19,86.0,4.43,13.84,47.59359,-54.27349
2021-07-13 21:04:01+00:00,89.0,3.45,98.0,5.77,13.84,47.59359,-54.27349
2021-07-13 21:14:01+00:00,88.0,2.56,92.0,3.57,13.76,47.59359,-54.27349
2021-07-13 21:24:01+00:00,102.0,2.78,94.0,4.39,13.76,47.59359,-54.27349
2021-07-13 21:34:01+00:00,122.0,3.54,123.0,4.49,13.76,47.59359,-54.27349
2021-07-13 21:44:01+00:00,133.0,2.87,138.0,3.44,13.76,47.59359,-54.27349
2021-07-13 21:54:01+00:00,137.0,1.93,132.0,2.44,13.76,47.59359,-54.27349
2021-07-13 22:04:01+00:00,217.0,5.56,218.0,6.08,13.76,47.59359,-54.27349
2021-07-13 22:14:01+00:00,229.0,4.53,222.0,5.43,13.6,47.59359,-54.27349
2021-07-13 22:24:01+00:00,229.0,6.68,231.0,7.69,13.6,47.59359,-54.27349
2021-07-13 22:34:01+00:00,219.0,7.85,220.0,8.78,13.6,47.59359,-54.27349
2021-07-13 22:44:01+00:00,218.0,6.95,218.0,7.73,13.6,47.59359,-54.27349
2021-07-13 22:54:01+00:00,216.0,6.65,218.0,8.37,13.6,47.59359,-54.27349
2021-07-13 23:04:01+00:00,221.0,6.06,219.0,6.91,13.6,47.59359,-54.27349
2021-07-13 23:14:01+00:00,221.0,4.77,221.0,5.48,13.21,47.59359,-54.27349
2021-07-13 23:24:01+00:00,209.0,5.0,212.0,5.57,13.21,47.59359,-54.27349
2021-07-13 23:34:01+00:00,205.0,5.02,203.0,5.81,13.21,47.59359,-54.27349
2021-07-13 23:44:01+00:00,205.0,4.48,206.0,5.03,13.21,47.59359,-54.27349
2021-07-13 23:54:01+00:00,205.0,4.62,203.0,5.38,13.21,47.59359,-54.27349
